Temperature
8 10 10 9 9 10 10 10 10 10 8 8 9 10 10 9 8 8 8 7 7 7 6 7 7 7 7 8 8 8 8 8 8 8 8 8 8 8 8 9 9 9 9 9
9 9 9 8 8 8 9 9 10 9 8 8 9 9 10 9 8 8 8 7 7 6 6 6 7 7 7 7 7 7 7 7 7 8 7 8 8 7 8 8 8 8 8 8
9 8 7 8 8 8 8 9 9 8 8 8 8 10 10 9 8 7 7 7 7 6 6 6 6 6 6 6 7 7 7 7 7 7 7 7 7 7 7 8 8 8 8 8
8 7 7 7 7 8 8 8 7 7 8 9 8 10 11 9 8 7 7 6 6 6 5 5 5 6 6 6 6 7 7 7 7 7 7 7 7 7 7 7 7 8 8 8
7 6 7 7 7 7 8 7 7 7 7 8 8 8 10 8 8 8 7 6 6 5 5 5 5 5 6 6 6 6 6 6 6 6 6 6 6 6 6 7 7 7 7 7
6 5 6 6 6 6 6 6 6 6 7 7 8 8 10 9 8 8 7 6 5 4 4 4 4 5 5 5 6 6 6 6 6 6 6 6 6 6 6 6 6 6 7 7
6 5 5 5 6 6 6 7 7 7 7 8 7 7 8 8 7 6 6 5 4 4 4 4 4 4 4 5 5 5 5 5 5 5 5 6 6 6 6 6 6 6 6 6
6 6 5 5 6 6 6 7 8 8 9 9 6 7 8 6 5 5 4 4 4 3 3 3 3 4 4 4 4 5 5 5 5 5 5 5 5 5 5 5 6 6 6 6
7 6 4 4 5 6 6 6 6 6 5 6 7 7 7 6 5 5 4 4 3 3 3 3 3 3 3 4 4 4 4 4 4 4 5 5 5 5 5 5 5 5 5 5
5 5 4 4 4 4 5 5 5 6 6 7 8 7 8 6 6 5 4 4 3 3 3 3 3 3 3 3 3 4 4 4 4 4 4 4 4 4 5 5 5 5 5 5
4 4 4 3 4 5 4 4 5 5 6 7 8 8 7 6 6 5 4 3 3 2 3 3 3 3 3 3 3 3 3 3 3 3 4 4 4 4 4 4 5 5 5 5
3 4 4 4 3 3 4 5 4 5 4 5 7 8 6 5 4 4 3 3 2 2 2 2 2 2 2 2 2 2 2 3 3 3 3 3 3 4 4 4 4 4 4 4
2 3 4 4 3 2 2 3 3 3 4 4 6 7 5 4 4 3 3 2 2 2 2 2 2 2 2 2 2 2 2 2 2 2 2 3 3 3 4 4 4 4 4 4
2 2 4 5 5 4 2 2 2 3 4 4 5 6 5 5 4 4 3 2 2 2 1 1 2 2 2 2 2 2 2 2 2 2 2 2 2 3 3 3 3 3 3 3
2 2 1 2 2 2 2 2 2 2 4 4 5 4 5 5 4 3 3 2 1 1 1 1 1 1 1 1 1 1 1 1 1 1 1 1 2 2 2 2 3 3 3 3
1 1 0 1 1 1 1 2 2 2 2 3 3 4 5 4 3 2 2 1 1 1 1 1 1 1 1 1 1 1 1 1 1 1 1 1 1 1 1 2 2 2 2 2
0 -0 1 2 1 1 2 2 2 2 2 2 3 4 4 3 3 2 2 1 1 0 0 0 0 0 0 1 1 1 1 0 0 0 0 0 1 1 1 1 1 2 2 2
-1 -0 0 1 1 2 4 2 2 2 2 2 2 3 3 2 2 1 1 1 1 0 0 0 0 0 0 0 0 0 0 -0 -0 -0 -0 -0 -0 0 0 0 1 1 1 1
-1 -0 0 1 2 3 3 1 1 1 1 1 2 2 1 0 0 1 1 1 0 0 0 -0 -0 -0 -0 -0 -0 -0 -0 -1 -1 -1 -1 -1 -1 -1 -0 -0 -0 -0 0 0
-2 -1 -0 0 1 2 3 1 -0 1 2 2 1 1 1 -0 2 2 1 0 0 -0 -0 -0 -0 -0 -0 -0 -0 -1 -1 -1 -1 -1 -1 -1 -1 -1 -1 -1 -1 -1 -1 -1
-2 -1 -1 -0 1 2 2 -1 -0 2 3 1 0 0 -0 0 1 1 0 -0 -0 -0 -0 -1 -1 -1 -1 -1 -1 -1 -1 -1 -1 -1 -2 -2 -2 -2 -2 -2 -1 -1 -1 -1
-1 -1 -1 -1 0 1 -0 -1 1 2 1 0 0 -0 -1 -1 -0 -0 -0 -0 -1 -1 -1 -1 -1 -1 -1 -1 -1 -1 -2 -2 -2 -2 -2 -2 -2 -2 -2 -2 -2 -2 -2 -2
-2 -1 -0 -0 1 0 -1 -1 -1 -1 -0 -0 -0 -0 -1 -1 -1 -1 -1 -1 -1 -1 -1 -1 -1 -2 -2 -2 -2 -2 -2 -2 -2 -2 -2 -2 -3 -3 -3 -3 -3 -3 -3 -3
-2 -3 -2 -2 -1 -1 -2 -2 -1 -1 -1 -1 -1 -1 -1 -1 -1 -1 -1 -1 -2 -2 -2 -2 -2 -2 -2 -2 -2 -2 -3 -2 -3 -3 -3 -3 -3 -3 -3 -3 -3 -3 -3 -3
-2 -3 -3 -3 -1 -2 -2 -1 -1 -1 -1 -1 -1 -1 -2 -2 -2 -2 -2 -2 -2 -2 -2 -2 -2 -3 -2 -3 -3 -3 -3 -3 -3 -3 -3 -3 -3 -4 -4 -4 -4 -4 -4 -4
-3 -3 -2 -1 -1 -1 -1 -1 -1 -1 -1 -1 -2 -2 -2 -2 -2 -2 -2 -2 -2 -2 -3 -3 -3 -3 -3 -3 -3 -3 -3 -3 -3 -4 -4 -4 -4 -4 -4 -4 -4 -4 -4 -4
Wind_Speed
2 4 5 6 6 4 4 5 7 5 3 5 9 12 9 6 6 6 6 5 5 5 5 3 3 3 2 3 3 3 3 3 2 2 3 3 3 3 2 2 3 4 4 4
4 6 6 4 4 4 5 6 6 4 2 4 8 12 9 6 6 6 6 6 6 6 5 4 3 3 3 3 3 3 3 3 3 3 3 3 3 2 3 2 3 3 4 4
7 3 4 5 5 5 6 7 6 4 3 4 6 7 6 3 5 5 5 5 5 5 5 4 4 3 4 4 4 3 4 4 4 3 2 2 2 2 2 3 3 4 4 5
5 3 5 6 6 6 7 4 5 4 4 4 3 6 5 3 3 3 4 4 5 4 4 4 4 4 4 4 4 4 4 4 4 3 3 4 4 4 4 3 3 3 4 5
5 5 6 7 6 6 3 2 3 5 5 5 5 6 5 1 4 4 4 3 4 4 4 4 4 4 4 4 3 3 4 4 4 4 4 4 5 4 3 3 4 3 3 4
3 3 4 4 3 4 2 2 1 2 4 6 7 7 5 3 3 3 3 3 4 4 4 4 4 4 4 4 3 3 3 4 4 4 5 6 6 5 4 4 4 3 3 4
3 4 2 3 3 4 3 3 2 3 4 5 3 6 6 3 3 4 4 4 4 4 4 4 4 4 4 4 4 4 4 4 4 5 6 6 7 6 6 6 5 5 4 4
6 5 6 4 4 5 7 6 4 4 5 3 3 6 4 2 3 3 3 3 3 4 4 4 3 3 4 4 4 4 4 5 5 5 6 6 6 5 5 6 5 5 5 5
7 5 3 3 2 5 6 6 3 1 2 4 5 5 5 3 2 2 2 2 3 4 4 4 4 3 4 4 4 4 4 4 5 5 5 5 6 6 6 6 6 5 5 4
3 4 3 2 3 1 3 5 3 4 4 6 5 6 4 4 4 3 3 3 3 4 4 4 4 4 4 4 4 4 4 4 4 4 5 4 5 5 5 5 6 6 5 5
2 3 3 4 7 7 5 5 4 4 4 5 6 4 2 4 3 3 3 3 3 4 4 4 4 4 4 4 4 4 4 5 4 4 4 4 4 5 5 5 6 5 5 6
3 2 3 4 1 2 5 7 7 6 5 5 6 5 1 2 2 3 3 3 4 4 4 4 4 4 4 4 4 4 5 5 5 5 4 4 4 4 4 4 5 5 5 5
5 4 2 2 3 3 5 5 6 4 3 5 7 6 1 1 3 3 4 4 4 4 4 4 4 3 4 4 4 4 5 5 5 5 4 4 4 4 4 4 4 5 5 5
4 4 6 8 4 5 6 7 8 7 6 8 11 11 7 6 6 6 5 5 5 4 4 4 4 4 4 4 4 4 5 5 5 5 4 4 4 4 3 4 4 4 4 4
3 4 4 6 5 5 8 11 12 13 13 11 12 12 12 8 7 6 5 5 5 5 5 5 5 5 5 4 4 4 4 5 5 5 4 4 4 3 3 3 3 3 3 4
2 3 3 5 5 6 8 13 14 14 13 13 13 14 11 7 6 6 6 5 5 5 5 5 5 5 5 5 5 5 4 4 4 4 5 4 4 3 3 2 2 2 2 3
3 3 3 5 3 4 9 12 14 11 11 11 13 11 7 6 7 6 6 5 5 6 6 6 6 6 6 5 5 4 4 4 4 4 4 4 4 3 2 2 2 2 2 3
4 4 2 3 3 9 5 1 8 11 11 12 11 9 7 7 7 7 6 6 6 6 6 6 6 6 6 5 4 4 4 3 3 3 4 4 4 4 3 2 2 2 2 3
5 4 3 3 6 9 6 3 4 7 8 8 10 10 7 4 5 6 5 5 6 6 6 5 6 6 5 5 4 4 3 3 3 3 4 4 4 4 3 3 3 3 3 3
1 3 3 4 6 8 3 1 2 3 5 4 7 8 6 3 4 5 3 4 5 5 5 5 5 4 4 4 3 3 3 3 4 4 4 4 4 4 4 3 4 3 3 3
3 3 6 7 8 8 3 1 4 5 3 0 4 6 5 6 6 4 4 4 4 5 5 4 4 4 4 4 3 4 4 4 4 4 3 3 3 4 4 3 3 3 3 3
6 6 6 6 7 7 3 5 6 4 3 2 3 4 5 6 5 5 5 5 4 4 4 4 4 4 4 3 3 4 4 4 4 3 3 3 3 3 3 3 3 2 2 3
7 6 5 7 7 4 4 5 5 4 4 4 4 4 4 5 6 5 5 5 5 5 4 4 4 4 4 3 4 4 4 4 3 3 3 3 3 3 2 3 2 2 2 2
6 4 5 7 9 8 8 8 7 6 6 6 5 5 5 6 6 6 5 5 5 5 4 4 4 4 4 4 4 4 4 3 3 3 3 3 3 3 2 2 2 2 2 2
6 5 6 8 9 8 8 9 9 8 7 7 6 5 6 6 6 6 6 6 5 5 4 4 4 5 5 4 4 4 3 3 3 3 3 3 3 3 2 2 2 3 3 3
8 8 9 10 8 7 7 6 7 7 8 7 7 7 6 6 7 6 6 6 5 5 4 4 5 5 5 5 5 4 3 3 3 3 3 2 2 2 2 2 2 2 3 4
Wind_Direction
163 185 201 208 217 242 222 229 249 256 268 255 255 265 267 258 256 257 256 263 271 279 291 297 299 285 278 275 272 262 249 234 216 224 229 223 224 226 227 233 221 209 205 198
175 210 217 208 201 209 221 238 253 265 250 263 272 273 268 247 242 250 255 262 269 280 291 300 304 308 289 276 266 263 257 240 226 227 237 238 233 239 238 233 234 216 206 203
201 207 201 196 193 213 236 236 245 263 294 249 282 267 244 234 244 259 265 268 272 272 276 286 288 288 290 287 275 264 263 249 230 223 222 218 215 224 226 231 235 229 214 206
211 211 194 199 214 220 234 234 241 249 262 259 272 275 255 240 266 273 276 277 280 283 283 286 284 285 285 284 285 274 262 255 236 216 213 213 220 229 235 230 228 234 221 214
205 200 201 212 222 214 226 224 229 241 243 261 239 253 265 250 270 282 289 292 297 300 297 289 285 283 287 292 293 285 271 263 247 229 220 221 231 238 240 228 227 231 221 219
212 212 221 225 225 199 151 136 136 198 222 246 233 231 266 232 260 295 309 311 318 321 318 309 301 302 306 314 316 302 285 276 264 247 235 226 230 231 233 234 227 232 228 220
216 209 204 193 175 176 183 178 211 216 221 239 183 228 253 271 283 291 306 315 323 332 332 326 316 308 310 315 317 305 293 284 278 264 248 238 235 231 230 235 231 229 229 226
205 218 194 193 197 193 202 205 213 237 250 253 205 236 253 329 313 300 306 312 327 342 343 333 316 306 311 316 313 303 295 287 284 274 262 249 241 235 231 230 231 233 234 227
201 210 175 194 213 192 191 207 245 243 265 252 237 253 275 278 275 294 321 331 338 348 345 338 332 327 323 321 314 303 296 291 287 278 266 254 243 238 234 230 227 234 237 228
190 205 195 188 180 185 214 177 174 199 228 252 250 247 248 234 255 273 303 320 333 344 343 342 340 332 326 324 317 311 308 299 292 287 276 263 253 245 239 231 224 228 232 225
185 188 184 186 202 198 175 185 197 202 239 246 259 250 219 229 248 253 273 292 310 325 335 337 337 334 334 336 334 329 324 319 309 303 295 277 262 252 244 234 225 223 222 213
171 182 215 216 215 260 212 204 193 207 222 236 256 261 120 226 261 268 278 286 300 310 323 328 332 335 339 340 337 334 330 328 323 315 305 292 275 258 248 240 230 224 219 211
159 168 188 207 195 198 217 214 212 213 209 220 235 251 143 258 287 279 275 283 294 303 316 326 332 330 330 332 334 334 330 328 328 321 313 306 285 262 249 241 232 223 210 204
162 188 221 236 252 205 218 217 210 204 220 234 241 254 262 275 285 287 283 282 287 294 303 315 321 321 322 324 327 326 326 325 326 325 317 313 299 276 258 244 232 216 206 201
181 212 233 263 268 235 232 225 216 221 228 237 250 253 262 269 275 282 282 281 283 288 290 298 306 308 310 315 320 321 321 324 322 322 321 316 313 292 271 251 231 211 206 207
170 202 227 259 254 250 255 241 227 229 236 244 256 263 268 272 268 268 272 274 275 277 283 292 296 298 297 300 306 309 312 318 318 319 322 322 321 306 285 269 244 211 210 213
173 168 206 250 266 272 255 236 219 221 224 222 237 251 261 260 260 264 267 270 274 276 281 284 288 288 289 288 289 292 299 307 309 314 322 327 325 319 296 286 259 229 221 215
183 183 219 246 225 242 256 251 217 224 235 230 239 251 253 260 274 275 263 264 274 280 281 283 287 289 289 286 285 288 292 297 303 313 322 323 320 317 301 283 266 248 233 223
215 192 199 221 248 267 268 225 204 218 251 235 235 247 259 280 293 270 257 257 266 274 279 283 284 285 284 280 282 287 291 296 301 307 312 314 310 309 306 276 263 257 244 235
170 198 204 214 242 253 260 166 180 189 253 230 225 235 243 224 259 275 284 272 277 285 289 291 292 289 283 283 279 276 284 290 292 297 301 303 303 300 296 286 264 251 242 239
186 200 215 225 242 262 270 167 160 210 250 288 225 232 226 232 262 293 293 283 283 292 296 295 291 285 281 281 273 271 277 284 294 300 303 302 303 298 295 293 279 257 242 233
196 197 208 209 229 250 146 154 201 252 328 281 248 237 236 250 272 283 284 285 290 296 299 300 294 289 284 270 261 268 277 291 298 299 298 297 297 299 295 290 287 271 252 236
217 217 215 215 235 290 208 229 255 285 275 278 267 257 245 256 265 274 280 281 283 286 291 290 283 285 282 267 258 267 284 292 291 287 288 292 298 299 290 280 281 277 263 246
231 230 231 249 259 263 257 262 271 271 272 279 275 266 251 254 263 268 270 274 277 280 279 276 275 273 276 275 269 272 283 287 278 276 282 287 294 297 288 281 277 268 259 250
236 208 230 252 266 277 263 255 259 265 270 272 275 269 257 254 261 263 266 267 269 273 271 264 262 265 270 274 275 279 278 274 269 269 273 277 280 285 285 284 275 269 266 263
231 221 226 247 250 246 265 273 263 260 265 267 271 274 267 255 256 262 264 264 263 262 262 261 262 262 267 269 271 275 271 261 259 261 264 267 272 279 285 287 300 312 281 288
Height
1509 1510 1508 1508 1510 1509 1509 1508 1507 1509 1513 1513 1508 1505 1504 1506 1506 1505 1505 1504 1504 1503 1503 1503 1503 1503 1503 1503 1503 1503 1504 1504 1504 1504 1505 1505 1505 1506 1507 1508 1509 1510 1510 1511
1508 1507 1509 1511 1512 1512 1510 1508 1506 1509 1513 1512 1507 1503 1501 1502 1502 1502 1502 1502 1501 1501 1500 1500 1500 1500 1500 1500 1500 1500 1500 1501 1501 1501 1502 1502 1503 1503 1504 1505 1506 1506 1507 1508
1502 1507 1510 1511 1511 1511 1509 1507 1507 1509 1511 1510 1508 1497 1495 1498 1500 1500 1500 1499 1499 1499 1498 1497 1497 1497 1497 1497 1497 1497 1497 1497 1498 1499 1499 1499 1500 1500 1501 1502 1502 1503 1504 1504
1505 1508 1509 1509 1508 1508 1506 1509 1510 1511 1508 1503 1507 1494 1488 1493 1496 1496 1496 1496 1496 1496 1496 1495 1494 1494 1494 1494 1494 1494 1494 1494 1495 1495 1495 1496 1496 1497 1497 1498 1499 1500 1500 1501
1504 1507 1507 1507 1507 1508 1507 1510 1511 1510 1508 1507 1505 1503 1486 1492 1492 1492 1493 1494 1494 1494 1493 1492 1492 1491 1491 1491 1491 1490 1490 1491 1491 1492 1492 1492 1493 1494 1494 1495 1496 1496 1497 1497
1505 1508 1508 1507 1509 1510 1511 1511 1511 1511 1508 1506 1499 1499 1485 1487 1489 1490 1492 1492 1492 1492 1491 1490 1490 1489 1488 1488 1487 1487 1487 1487 1488 1488 1488 1489 1490 1491 1491 1491 1492 1492 1493 1494
1504 1506 1507 1508 1507 1509 1508 1506 1503 1502 1500 1493 1501 1499 1489 1488 1491 1491 1492 1491 1491 1490 1489 1488 1487 1486 1486 1485 1484 1484 1484 1484 1484 1484 1485 1485 1486 1487 1487 1488 1488 1489 1489 1489
1498 1499 1504 1505 1504 1505 1505 1502 1499 1496 1489 1487 1502 1495 1487 1491 1492 1492 1491 1491 1490 1489 1488 1487 1486 1485 1484 1483 1482 1481 1481 1480 1480 1480 1481 1481 1482 1482 1483 1484 1484 1484 1485 1486
1493 1496 1504 1505 1505 1504 1504 1502 1503 1502 1506 1500 1490 1489 1489 1489 1489 1490 1490 1489 1489 1488 1487 1486 1484 1483 1482 1481 1480 1479 1478 1477 1477 1477 1477 1478 1478 1478 1479 1480 1480 1481 1481 1482
1494 1498 1502 1505 1505 1506 1504 1504 1506 1503 1498 1488 1482 1485 1480 1484 1485 1487 1488 1488 1487 1486 1486 1484 1483 1481 1480 1479 1478 1477 1476 1474 1474 1474 1473 1473 1474 1474 1475 1475 1476 1476 1477 1477
1497 1498 1502 1503 1501 1499 1504 1506 1502 1500 1498 1489 1481 1478 1479 1482 1484 1485 1486 1486 1486 1485 1484 1483 1481 1480 1479 1477 1476 1474 1473 1472 1471 1470 1470 1469 1469 1469 1470 1470 1471 1472 1473 1473
1497 1497 1496 1498 1502 1502 1500 1498 1499 1497 1499 1497 1485 1481 1482 1483 1484 1485 1485 1485 1485 1484 1483 1482 1480 1479 1477 1476 1474 1472 1471 1469 1468 1467 1466 1465 1465 1465 1465 1466 1466 1468 1468 1469
1496 1497 1494 1493 1501 1504 1501 1500 1500 1500 1498 1494 1486 1479 1482 1483 1483 1484 1484 1483 1483 1482 1481 1480 1479 1477 1476 1474 1472 1470 1469 1467 1466 1464 1463 1461 1461 1460 1460 1461 1462 1463 1464 1465
1494 1495 1491 1483 1481 1490 1496 1498 1499 1498 1493 1488 1482 1476 1478 1480 1481 1482 1482 1481 1481 1480 1479 1478 1476 1475 1474 1472 1470 1468 1467 1465 1464 1462 1460 1458 1457 1456 1456 1457 1458 1459 1460 1461
1492 1492 1494 1492 1491 1491 1490 1492 1494 1493 1486 1483 1476 1478 1474 1477 1479 1479 1479 1479 1478 1477 1476 1475 1474 1473 1472 1470 1468 1466 1465 1463 1461 1459 1458 1456 1454 1453 1453 1453 1454 1455 1456 1457
1492 1492 1494 1493 1492 1492 1490 1486 1487 1487 1485 1483 1480 1477 1473 1476 1477 1477 1477 1476 1475 1475 1474 1473 1472 1470 1469 1468 1466 1464 1462 1461 1459 1457 1455 1453 1452 1451 1450 1450 1451 1451 1452 1453
1491 1492 1490 1484 1491 1490 1481 1476 1478 1479 1478 1478 1475 1471 1472 1473 1473 1473 1473 1473 1472 1472 1471 1470 1469 1467 1466 1465 1463 1461 1460 1458 1456 1455 1453 1451 1449 1448 1448 1448 1448 1448 1449 1450
1490 1490 1489 1487 1489 1481 1466 1471 1471 1472 1472 1472 1470 1469 1470 1470 1471 1470 1470 1470 1469 1469 1468 1467 1466 1464 1463 1462 1460 1459 1457 1455 1454 1452 1450 1448 1447 1446 1445 1445 1445 1445 1446 1446
1487 1488 1487 1485 1477 1468 1466 1469 1470 1470 1468 1467 1467 1467 1468 1469 1469 1467 1467 1467 1466 1466 1465 1464 1463 1461 1459 1458 1457 1456 1454 1453 1451 1449 1448 1447 1445 1444 1443 1443 1443 1443 1443 1443
1488 1488 1486 1484 1476 1466 1460 1467 1468 1469 1465 1462 1463 1464 1465 1467 1465 1463 1463 1463 1463 1462 1461 1460 1459 1458 1457 1455 1454 1453 1451 1450 1449 1447 1446 1445 1443 1442 1441 1440 1440 1441 1441 1441
1486 1485 1484 1479 1473 1462 1463 1466 1468 1466 1458 1460 1460 1461 1463 1463 1462 1461 1460 1460 1459 1459 1458 1457 1456 1455 1454 1453 1451 1450 1448 1447 1446 1445 1444 1443 1441 1440 1439 1438 1438 1438 1438 1438
1477 1477 1480 1477 1473 1464 1464 1466 1464 1459 1459 1458 1458 1458 1459 1459 1459 1458 1458 1457 1456 1455 1455 1454 1453 1452 1451 1450 1448 1447 1446 1445 1444 1443 1442 1440 1439 1438 1436 1436 1435 1435 1435 1434
1474 1472 1469 1468 1463 1461 1461 1460 1460 1459 1458 1457 1456 1456 1456 1456 1456 1455 1454 1454 1453 1452 1452 1451 1450 1448 1447 1447 1446 1444 1443 1442 1441 1440 1439 1438 1437 1435 1434 1433 1432 1432 1432 1431
1469 1470 1469 1466 1459 1459 1459 1457 1457 1457 1456 1455 1455 1454 1454 1453 1452 1452 1451 1450 1450 1449 1448 1447 1446 1445 1444 1443 1443 1442 1441 1439 1438 1437 1436 1435 1434 1433 1432 1431 1430 1429 1429 1429
1462 1465 1464 1461 1457 1456 1454 1454 1454 1454 1453 1452 1452 1452 1451 1450 1449 1448 1448 1447 1446 1446 1445 1444 1443 1442 1441 1440 1439 1438 1437 1436 1435 1434 1433 1432 1431 1430 1429 1428 1428 1427 1427 1427
1458 1458 1457 1451 1451 1452 1450 1450 1450 1450 1449 1449 1448 1447 1447 1447 1445 1445 1444 1443 1443 1442 1441 1440 1439 1438 1437 1437 1436 1435 1434 1433 1432 1431 1430 1430 1429 1428 1427 1426 1425 1425 1424 1424